Location: Waning Moon II Observatory
(30.3730°N, 89.7620°W)
Time: 05:53:56
(UTC-06:00)

Daily predictions for brighter satellites

Satellite Brightness Start Highest point End
(mag) Time Altitude Azimuth Time Altitude Azimuth Time Altitude Azimuth
USA 215 4.4 03:26:44 10° ENE 03:32:38 36° SE 03:32:45 36° SE
Lacrosse 5 4.5 03:44:47 14° NE 03:44:47 14° NE 03:45:29 10° NE
Centaur D-1AR AC-39 3.5 04:15:47 30° S 04:15:47 30° S 04:18:16 10° SE
H-2A ROCKET BODY 3.5 04:16:36 48° SW 04:18:00 52° S 04:44:27 10° ESE
Cosmos 2184 Rocket 4.0 04:18:56 10° S 04:25:03 76° E 04:31:14 10° N
Skynet4D Del rocket 4.4 04:25:31 40° S 04:25:50 40° SSE 04:30:48 10° E
Cosmos 44 4.5 04:21:39 10° S 04:26:47 45° ESE 04:31:48 10° NE
Cosmos 1943 3.9 04:34:26 10° S 04:39:51 53° ESE 04:45:19 10° NNE
Cosmos 1536 Rocket 3.7 04:43:12 66° NE 04:43:36 72° E 04:47:58 10° SSE
Meteor 1-18 Rocket 4.2 04:43:33 42° NNW 04:45:38 77° W 04:51:32 10° S
Cosmos 921 Rocket 3.0 04:47:21 85° N 04:47:28 88° E 04:51:58 10° SSE
Cosmos 1633 3.7 04:44:04 10° SSE 04:47:32 43° E 04:50:59 10° NNE
Feng Yun 1-1 Rocket 4.1 04:43:27 10° N 04:48:54 62° WNW 04:54:13 10° SSW
Thor Agena Rocket 3.4 04:48:37 10° S 04:53:35 63° WSW 04:54:10 58° WNW
Gbstr 26 Del rocket 3.9 04:54:47 34° SSW 04:54:47 34° SSW 04:57:38 10° SSE
Okean 1 Rocket 3.2 04:54:25 10° S 04:58:48 74° E 05:03:10 10° N
USA 116 4.3 04:56:42 10° S 05:00:02 47° SW 05:00:02 47° SW
Cosmos 1610 Rocket 4.3 04:54:57 10° S 05:01:06 76° W 05:07:21 10° N
CZ-3 R/B 2.6 04:44:16 10° WSW 05:01:58 55° S 05:06:46 10° E
Cosmos 2056 Rocket 3.7 04:59:37 18° N 05:03:27 68° ENE 05:08:31 10° SSE
CZ-3 Stage 3 4.1 05:05:13 26° SSW 05:05:38 27° SSW 05:09:48 10° SE
Cosmos 1238 Rocket 3.9 05:04:08 37° NW 05:05:57 50° W 05:11:58 10° SSW
COSMO-SKYMED 1 3.4 05:02:05 10° SSE 05:06:15 49° ENE 05:10:27 10° N
PSLV R/B 4.4 05:12:06 31° N 05:12:33 33° NNE 05:15:39 10° E
Cosmos 44 Rocket 4.0 05:13:50 34° NW 05:13:50 34° NW 05:18:15 10° N
USA 215 3.4 05:09:24 10° NNE 05:15:37 49° NW 05:20:10 19° WSW
Cosmos 1602 3.7 05:11:47 10° SSW 05:15:41 59° W 05:19:35 10° N
Ariane Rocket 3.3 05:11:06 10° NNE 05:16:09 70° ESE 05:21:11 10° S
Cosmos 1624 Rocket 3.9 05:12:49 18° NNW 05:16:51 79° WSW 05:22:10 10° S
Cosmos 1371 Rocket 4.1 05:19:01 23° NW 05:22:09 54° WSW 05:27:12 10° S
Cosmos 1300 Rocket 3.9 05:18:52 10° SSW 05:23:01 40° W 05:27:11 10° N
ASTRO E2 2.7 05:21:27 31° WSW 05:23:16 76° SSE 05:27:17 10° E
Lacrosse 5 3.1 05:24:03 22° NW 05:24:03 22° NW 05:27:41 10° N
Okean 1-7 Rocket 3.6 05:23:17 10° N 05:27:40 79° E 05:32:02 10° S
Meteor 1-19 Rocket 4.3 05:21:54 10° N 05:27:45 83° E 05:33:28 10° S
Meteor 1-28 Rocket 4.4 05:24:21 10° SSE 05:27:56 43° ENE 05:31:33 10° N
CSL-04 DEB 4.3 05:25:51 10° N 05:29:58 81° WNW 05:34:11 10° SSW
Meteor 1-11 Rocket 3.8 05:25:49 10° SSW 05:31:34 57° W 05:37:14 10° N
Okean 1 4.3 05:32:44 26° W 05:32:51 26° W 05:36:11 10° SSW
SKYMED 3 4.5 05:31:57 10° S 05:36:15 68° W 05:40:34 10° NNW
Nadezhda 3 Rocket 4.0 05:34:15 10° N 05:40:36 71° W 05:46:54 10° S
Cosmos 1346 Rocket 3.9 05:41:29 21° WNW 05:42:16 23° W 05:45:25 10° SW
IDEFIX/ARIANE 42P 4.2 05:40:29 10° NNE 05:45:17 37° E 05:50:04 10° SSE
CSL-04 Rocket 3.6 05:41:12 10° N 05:46:43 74° WNW 05:52:09 10° SSW
Tiangong 2 3.6 05:45:46 10° NNW 05:47:11 12° NNE 05:48:36 10° NE
Atlas Centaur 2 4.5 05:40:12 10° SSW 05:47:21 32° SSE 05:53:37 10° E
Cosmos 2084 3.1 05:45:18 10° SW 05:49:13 61° WNW 05:53:00 10° NNE
Cosmos 1455 Rocket 4.1 05:46:10 10° SSE 05:50:18 49° E 05:54:29 10° NNE
Cosmos 1452 Rocket 3.6 05:47:24 10° NNW 05:52:41 81° ENE 05:57:57 10° SSE
CSL-04 Debris 4.1 05:47:20 10° N 05:52:48 77° WNW 05:58:16 10° SSW
Meteor 1-23 Rocket 4.3 05:47:47 10° N 05:53:22 85° E 05:58:56 10° S
SKYMED 2 4.1 05:50:15 10° SSW 05:54:18 39° W 05:58:22 10° NNW
NOSS 3-1 (C) 4.1 05:51:04 10° SSW 05:56:36 57° ESE 06:02:35 10° NE
Cosmos 2341 Rocket 4.3 05:54:51 10° SSW 06:00:48 43° W 06:06:43 10° N
Meteor 2-4 Rocket 3.7 05:55:48 10° NNW 06:01:20 68° W 06:07:01 10° S
CZ-3 Stage 3 4.1 05:59:29 10° SSW 06:03:16 34° SE 06:16:05 10° ENE
Cosmos 2369 Rocket 2.2 05:58:32 10° NNW 06:04:13 70° WSW 06:09:50 10° S
Meteor 1-5 Rocket 4.1 05:59:21 10° SSW 06:04:40 61° W 06:09:55 10° N
USA 129 1.6 06:03:19 10° SSE 06:05:20 80° E 06:07:28 10° N
H-2A DEB 4.4 06:04:59 10° W 06:07:28 41° S 06:11:36 10° ESE
Okean 2 3.4 06:03:52 10° N 06:08:02 88° ENE 06:12:11 10° S
GPS 2-05 Rocket1 3.4 06:06:39 10° WNW 06:10:00 50° SSW 06:13:30 10° SE
OAO 3 Copernicus 4.4 06:06:03 10° WNW 06:11:06 75° NNE 06:16:12 10° ESE
Cosmos 1536 4.2 06:11:20 10° WSW 06:14:05 18° WNW 06:16:51 10° NNW
SMAP 3.2 06:11:40 10° NNE 06:16:20 83° E 06:21:00 10° S
Skynet4D Del rocket 4.0 06:12:44 10° WSW 06:18:01 61° S 06:23:23 10° E
Cosmos 864 Rocket 4.5 06:12:10 10° S 06:18:18 83° W 06:24:29 10° N
Cosmos 158 Rocket 4.0 06:14:53 10° SSW 06:20:06 77° WNW 06:25:29 10° NNE
